Location: Pedholt
(56.0260°N, 10.2097°E)
Time: 00:18:07
(UTC+00:00)

A-11 Canister half - Pass Details

Date: 02 August 2021
Orbit: 1515 x 1685 km, 47.2° (Epoch: 19 September)

Event Time Altitude Azimuth Distance (km) Brightness Sun altitude
Rises 18:31:08 0° 254° (WSW) 4,831 12.5 5.7°
Reaches altitude 10° 18:34:18 10° 250° (WSW) 3,867 11.9 5.3°
Maximum altitude 18:43:46 52° 178° (S) 1,993 9.6 4.1°
Drops below altitude 10° 18:53:27 10° 106° (ESE) 3,950 10.5 2.9°
Sets 18:56:44 0° 102° (ESE) 4,940 11.0 2.5°
